Kosmos-1861

operational
NORAD ID: 18129 Int'l Des: 1987-054 Owner: VMF Country: SU
LEOCIRCULARPOLAR

About Kosmos-1861

Description loading...

Live Position

Loading 3D Globe...

Upcoming Passes

Altitude History

Altitude vs Time

uPlot chart will show altitude changes over time

Two-Line Element Set

1 18129U 87054A 26061.17489131 .00000048 00000-0 35536-4 0 9992
2 18129 82.9245 42.0560 0010288 249.2537 122.2105 13.73257154938855
Epoch: Mar 2, 2026 • Age: 36 hours

Current Status

Altitude 1005.2 km
Velocity 7.35 km/s
Sub-Earth Point 57.86°N, 72.62°E
Launch Date Jun 23, 1987
Age 38.6 years
Type other

Technical Details

Classification Payload
Mass 800.00 kg
Dry Mass 800.00 kg
Total Mass 800.00 kg
Length 5.00 m
Diameter 2.10 m
Span 17.00 m
Shape Cyl + Ant
Manufacturer OAZ
Bus Type KAUR-1 11F643
Phase Status In Orbit
Owner/State VMF/SU

Large Constellations

Loading constellations...